Location: Unspecified
(0.0000°N, 0.0000°E)
Time: 00:36:13
(UTC+00:00)

LEMUR 2 GREENBERG - Pass Details

Date: 16 January 2026
Orbit: 478 x 492 km, 97.4° (Epoch: 10 February)

Event Time Altitude Azimuth Distance (km) Brightness Sun altitude
Rises 05:28:55 0° 172° (S) 2,580 ? -9.5°
Reaches altitude 10° 05:31:00 10° 174° (S) 1,696 ? -9.0°
Maximum altitude 05:34:38 75° 258° (WSW) 518 ? -8.2°
Drops below altitude 10° 05:38:16 10° 344° (NNW) 1,688 ? -7.3°
Sets 05:40:20 0° 346° (NNW) 2,566 ? -6.9°
